This is the latest recevied weather packets stored in our database for station/object W1HVD. If no packets are shown the sender has not sent any weather packets the latest 1 day(s).
| Time | Temp. | Humidity | Pressure | Rain* | Wind** | Luminosity | Snow |
|---|---|---|---|---|---|---|---|
| 1778052196 | 14.44° C | 87% | 1012 hPa | 0 mm | 1.79 m/s, 225° | 0 W/m² | - |
| 1778051893 | 14.44° C | 87% | 1011.8 hPa | 0 mm | 2.68 m/s, 76° | 0 W/m² | - |
| 1778051591 | 14.44° C | 86% | 1011.9 hPa | 0 mm | 1.34 m/s, 169° | 0 W/m² | - |
| 1778051288 | 14.44° C | 86% | 1011.8 hPa | 0 mm | 0.89 m/s, 132° | 0 W/m² | - |
| 1778050985 | 14.44° C | 86% | 1011.7 hPa | 0 mm | 0.89 m/s, 263° | 0 W/m² | - |
| 1778050682 | 14.44° C | 86% | 1011.7 hPa | 0 mm | 0.89 m/s, 189° | 0 W/m² | - |
| 1778050379 | 14.44° C | 86% | 1011.8 hPa | 0 mm | 0.89 m/s, 169° | 0 W/m² | - |
| 1778050076 | 14.44° C | 86% | 1011.7 hPa | 0 mm | 0.45 m/s, 186° | 0 W/m² | - |
| 1778049771 | 14.44° C | 85% | 1011.6 hPa | 0 mm | 0.89 m/s, 202° | 0 W/m² | - |
| 1778049469 | 14.44° C | 85% | 1011.7 hPa | 0 mm | 3.13 m/s, 218° | 0 W/m² | - |
| 1778049166 | 14.44° C | 85% | 1011.8 hPa | 0 mm | 0.45 m/s, 99° | 0 W/m² | - |
| 1778048865 | 14.44° C | 85% | 1011.8 hPa | 0 mm | 0.45 m/s, 253° | 0 W/m² | - |
| 1778048563 | 14.44° C | 84% | 1011.9 hPa | 0 mm | 0.89 m/s, 189° | 0 W/m² | - |
| 1778048258 | 14.44° C | 84% | 1011.7 hPa | 0 mm | 0.89 m/s, 12° | 0 W/m² | - |
| 1778047956 | 14.44° C | 84% | 1011.7 hPa | 0 mm | 3.13 m/s, 155° | 0 W/m² | - |
| 1778047654 | 14.44° C | 84% | 1011.8 hPa | 0 mm | 0.45 m/s, 184° | 0 W/m² | - |
| 1778047351 | 15° C | 83% | 1011.6 hPa | 0 mm | 3.58 m/s, 243° | 0 W/m² | - |
| 1778047048 | 14.44° C | 83% | 1011.9 hPa | 0 mm | 1.79 m/s, 240° | 0 W/m² | - |
| 1778046744 | 14.44° C | 83% | 1011.7 hPa | 0 mm | 1.34 m/s, 231° | 0 W/m² | - |
| 1778046441 | 15° C | 83% | 1012.1 hPa | 0 mm | 0 m/s | 0 W/m² | - |
| 1778046137 | 14.44° C | 84% | 1012.1 hPa | 0 mm | 1.34 m/s, 217° | 0 W/m² | - |
| 1778045834 | 14.44° C | 83% | 1012 hPa | 0 mm | 3.58 m/s, 263° | 0 W/m² | - |
| 1778045533 | 14.44° C | 84% | 1012 hPa | 0 mm | 0.45 m/s, 200° | 0 W/m² | - |
| 1778045231 | 14.44° C | 84% | 1012 hPa | 0 mm | 2.68 m/s, 190° | 0 W/m² | - |
| 1778044929 | 14.44° C | 83% | 1012.2 hPa | 0 mm | 2.68 m/s, 238° | 0 W/m² | - |
* Rain latest hour (hover to see other rain measurements)
** Current wind speed in m/s (hover to see current wind gust speed)